Time,TemperatureF,DewpointF,PressureIn,WindDirection,WindDirectionDegrees,WindSpeedMPH,WindSpeedGustMPH,Humidity,HourlyPrecipIn,Conditions,Clouds,dailyrainin,SoftwareType,DateUTC
2013-11-21 00:01:00,20.4,16.0,30.16,NNW,337,1.4,1.4,82,0.00,,,0.00,Rainwise IP-100,2013-11-21 05:01:00,
2013-11-21 00:03:00,20.4,16.0,30.16,NNW,337,2.6,3.0,82,0.00,,,0.00,Rainwise IP-100,2013-11-21 05:03:00,
2013-11-21 00:08:00,20.3,16.0,30.17,NNW,337,0.0,2.0,82,0.00,,,0.00,Rainwise IP-100,2013-11-21 05:08:00,
2013-11-21 00:13:00,20.4,16.0,30.17,NNW,337,0.0,0.0,82,0.00,,,0.00,Rainwise IP-100,2013-11-21 05:13:00,
2013-11-21 00:18:00,20.4,16.0,30.17,NNW,337,0.0,1.0,83,0.00,,,0.00,Rainwise IP-100,2013-11-21 05:18:00,
2013-11-21 00:23:00,20.3,16.0,30.17,NNW,337,1.2,1.2,83,0.00,,,0.00,Rainwise IP-100,2013-11-21 05:23:00,
2013-11-21 00:28:00,20.0,16.0,30.17,NNW,337,0.0,1.0,83,0.00,,,0.00,Rainwise IP-100,2013-11-21 05:28:00,
2013-11-21 00:33:00,19.8,16.0,30.17,NNW,337,0.0,0.0,83,0.00,,,0.00,Rainwise IP-100,2013-11-21 05:33:00,
2013-11-21 00:38:00,19.9,16.0,30.17,NNW,337,0.0,1.0,83,0.00,,,0.00,Rainwise IP-100,2013-11-21 05:38:00,
2013-11-21 00:43:00,20.2,16.0,30.17,NNW,337,0.0,1.0,84,0.00,,,0.00,Rainwise IP-100,2013-11-21 05:43:00,
2013-11-21 00:48:00,20.2,16.0,30.17,NNW,337,0.0,0.0,83,0.00,,,0.00,Rainwise IP-100,2013-11-21 05:48:00,
2013-11-21 00:53:00,19.8,16.0,30.17,NNW,337,0.0,0.0,83,0.00,,,0.00,Rainwise IP-100,2013-11-21 05:53:00,
2013-11-21 00:57:00,19.8,16.0,30.17,NNW,337,0.0,0.0,84,0.00,,,0.00,Rainwise IP-100,2013-11-21 05:57:00,
2013-11-21 01:02:00,19.9,16.0,30.17,NNW,337,0.0,0.0,84,0.00,,,0.00,Rainwise IP-100,2013-11-21 06:02:00,
2013-11-21 01:07:00,19.8,16.0,30.17,NNW,337,1.2,0.0,84,0.00,,,0.00,Rainwise IP-100,2013-11-21 06:07:00,
2013-11-21 01:12:00,19.6,16.0,30.17,NNW,337,0.0,3.0,84,0.00,,,0.00,Rainwise IP-100,2013-11-21 06:12:00,
2013-11-21 01:17:00,19.4,16.0,30.17,NNW,337,0.0,2.0,84,0.00,,,0.00,Rainwise IP-100,2013-11-21 06:17:00,
2013-11-21 01:22:00,19.3,16.0,30.18,NNW,337,0.0,0.0,84,0.00,,,0.00,Rainwise IP-100,2013-11-21 06:22:00,
2013-11-21 01:27:00,19.1,16.0,30.18,NNW,337,0.0,0.0,85,0.00,,,0.00,Rainwise IP-100,2013-11-21 06:27:00,
2013-11-21 01:32:00,18.7,16.0,30.18,NNW,337,0.0,0.0,85,0.00,,,0.00,Rainwise IP-100,2013-11-21 06:32:00,
2013-11-21 01:37:00,18.6,16.0,30.18,NNW,337,0.0,1.0,86,0.00,,,0.00,Rainwise IP-100,2013-11-21 06:37:00,
2013-11-21 01:43:00,18.6,16.0,30.18,NNW,337,0.0,1.0,86,0.00,,,0.00,Rainwise IP-100,2013-11-21 06:43:00,
2013-11-21 01:48:00,18.7,16.0,30.18,NNW,337,0.0,2.0,86,0.00,,,0.00,Rainwise IP-100,2013-11-21 06:48:00,
2013-11-21 01:53:00,18.6,16.0,30.18,NNW,337,0.0,1.0,86,0.00,,,0.00,Rainwise IP-100,2013-11-21 06:53:00,
2013-11-21 01:58:00,18.5,16.0,30.18,NNW,337,0.0,1.0,86,0.00,,,0.00,Rainwise IP-100,2013-11-21 06:58:00,
2013-11-21 02:03:00,18.5,18.0,30.18,NNW,337,0.0,0.0,87,0.00,,,0.00,Rainwise IP-100,2013-11-21 07:03:00,
2013-11-21 02:08:00,18.6,18.0,30.18,NNW,337,0.0,0.0,87,0.00,,,0.00,Rainwise IP-100,2013-11-21 07:08:00,
2013-11-21 02:13:00,18.6,18.0,30.18,NNW,337,0.0,0.0,87,0.00,,,0.00,Rainwise IP-100,2013-11-21 07:13:00,
2013-11-21 02:18:00,18.6,18.0,30.18,NNW,337,0.0,0.0,87,0.00,,,0.00,Rainwise IP-100,2013-11-21 07:18:00,
2013-11-21 02:23:00,18.5,18.0,30.18,NNW,337,0.0,0.0,87,0.00,,,0.00,Rainwise IP-100,2013-11-21 07:23:00,
2013-11-21 02:28:00,18.7,18.0,30.17,NNW,337,0.0,2.0,87,0.00,,,0.00,Rainwise IP-100,2013-11-21 07:28:00,
2013-11-21 02:33:00,18.7,16.0,30.18,NNW,337,0.0,0.0,86,0.00,,,0.00,Rainwise IP-100,2013-11-21 07:33:00,
2013-11-21 02:38:00,18.4,16.0,30.17,NNW,337,0.0,0.0,87,0.00,,,0.00,Rainwise IP-100,2013-11-21 07:38:00,
2013-11-21 02:43:00,18.1,16.0,30.17,NNW,337,0.0,0.0,87,0.00,,,0.00,Rainwise IP-100,2013-11-21 07:43:00,
2013-11-21 02:48:00,17.8,16.0,30.17,NNW,337,0.0,1.0,88,0.00,,,0.00,Rainwise IP-100,2013-11-21 07:48:00,
2013-11-21 02:53:00,17.6,16.0,30.16,NNW,337,1.6,1.6,88,0.00,,,0.00,Rainwise IP-100,2013-11-21 07:53:00,
2013-11-21 02:59:00,17.7,16.0,30.16,NNW,337,0.0,2.0,88,0.00,,,0.00,Rainwise IP-100,2013-11-21 07:59:00,
2013-11-21 03:04:00,17.9,16.0,30.17,NNW,337,0.0,0.0,88,0.00,,,0.00,Rainwise IP-100,2013-11-21 08:04:00,
2013-11-21 03:09:00,17.7,16.0,30.16,NNW,337,0.0,0.0,88,0.00,,,0.00,Rainwise IP-100,2013-11-21 08:09:00,
2013-11-21 03:14:00,17.5,16.0,30.16,NNW,337,0.0,0.0,88,0.00,,,0.00,Rainwise IP-100,2013-11-21 08:14:00,
2013-11-21 03:19:00,17.2,16.0,30.16,NNW,337,0.0,0.0,89,0.00,,,0.00,Rainwise IP-100,2013-11-21 08:19:00,
2013-11-21 03:24:00,17.2,16.0,30.16,NNW,337,0.0,0.0,89,0.00,,,0.00,Rainwise IP-100,2013-11-21 08:24:00,
2013-11-21 03:29:00,17.3,16.0,30.16,NNW,337,0.0,1.0,90,0.00,,,0.00,Rainwise IP-100,2013-11-21 08:29:00,
2013-11-21 03:34:00,17.5,16.0,30.16,NNW,337,0.0,0.0,89,0.00,,,0.00,Rainwise IP-100,2013-11-21 08:34:00,
2013-11-21 03:39:00,17.7,16.0,30.16,NNW,337,1.4,2.0,89,0.00,,,0.00,Rainwise IP-100,2013-11-21 08:39:00,
2013-11-21 03:44:00,17.9,16.0,30.16,NNW,337,0.0,1.0,88,0.00,,,0.00,Rainwise IP-100,2013-11-21 08:44:00,
2013-11-21 03:49:00,17.8,16.0,30.16,NNW,337,0.0,0.0,88,0.00,,,0.00,Rainwise IP-100,2013-11-21 08:49:00,
2013-11-21 03:54:00,17.6,16.0,30.16,NNW,337,0.0,0.0,89,0.00,,,0.00,Rainwise IP-100,2013-11-21 08:54:00,
2013-11-21 03:59:00,17.7,16.0,30.16,NNW,337,0.0,0.0,89,0.00,,,0.00,Rainwise IP-100,2013-11-21 08:59:00,
2013-11-21 04:04:00,17.8,16.0,30.17,NNW,337,0.0,0.0,89,0.00,,,0.00,Rainwise IP-100,2013-11-21 09:04:00,
2013-11-21 04:09:00,17.6,16.0,30.17,NNW,337,0.0,0.0,89,0.00,,,0.00,Rainwise IP-100,2013-11-21 09:09:00,
2013-11-21 04:15:00,17.5,16.0,30.17,NNW,337,0.0,0.0,89,0.00,,,0.00,Rainwise IP-100,2013-11-21 09:15:00,
2013-11-21 04:20:00,17.5,16.0,30.17,NNW,337,0.0,0.0,89,0.00,,,0.00,Rainwise IP-100,2013-11-21 09:20:00,
2013-11-21 04:25:00,17.4,16.0,30.17,NNW,337,0.0,1.0,89,0.00,,,0.00,Rainwise IP-100,2013-11-21 09:25:00,
2013-11-21 04:30:00,17.1,16.0,30.17,NNW,337,0.0,1.0,89,0.00,,,0.00,Rainwise IP-100,2013-11-21 09:30:00,
2013-11-21 04:35:00,16.8,16.0,30.16,NNW,337,0.0,1.0,89,0.00,,,0.00,Rainwise IP-100,2013-11-21 09:35:00,
2013-11-21 04:40:00,16.8,16.0,30.16,NNW,337,0.0,0.0,90,0.00,,,0.00,Rainwise IP-100,2013-11-21 09:40:00,
2013-11-21 04:45:00,16.9,16.0,30.17,NNW,337,0.0,1.0,90,0.00,,,0.00,Rainwise IP-100,2013-11-21 09:45:00,
2013-11-21 04:50:00,16.9,16.0,30.16,NNW,337,0.0,1.0,90,0.00,,,0.00,Rainwise IP-100,2013-11-21 09:50:00,
2013-11-21 04:55:00,16.9,16.0,30.16,NNW,337,0.0,0.0,90,0.00,,,0.00,Rainwise IP-100,2013-11-21 09:55:00,
2013-11-21 05:00:00,17.0,16.0,30.16,NNW,337,0.0,0.0,90,0.00,,,0.00,Rainwise IP-100,2013-11-21 10:00:00,
2013-11-21 05:05:00,17.0,16.0,30.17,NNW,337,0.0,0.0,90,0.00,,,0.00,Rainwise IP-100,2013-11-21 10:05:00,
2013-11-21 05:10:00,17.1,16.0,30.17,NNW,337,0.0,0.0,90,0.00,,,0.00,Rainwise IP-100,2013-11-21 10:10:00,
2013-11-21 05:15:00,17.2,16.0,30.17,NNW,337,0.0,0.0,90,0.00,,,0.00,Rainwise IP-100,2013-11-21 10:15:00,
2013-11-21 05:20:00,17.3,16.0,30.17,NNW,337,0.0,0.0,90,0.00,,,0.00,Rainwise IP-100,2013-11-21 10:20:00,
2013-11-21 05:25:00,17.2,16.0,30.16,NNW,337,0.0,0.0,89,0.00,,,0.00,Rainwise IP-100,2013-11-21 10:25:00,
2013-11-21 05:31:00,16.8,16.0,30.17,NNW,337,0.0,1.0,89,0.00,,,0.00,Rainwise IP-100,2013-11-21 10:31:00,
2013-11-21 05:36:00,16.3,14.0,30.16,NNW,337,0.0,1.0,90,0.00,,,0.00,Rainwise IP-100,2013-11-21 10:36:00,
2013-11-21 05:41:00,15.8,14.0,30.17,NNW,337,1.2,1.2,91,0.00,,,0.00,Rainwise IP-100,2013-11-21 10:41:00,
2013-11-21 05:46:00,15.8,14.0,30.17,NNW,337,1.2,1.2,92,0.00,,,0.00,Rainwise IP-100,2013-11-21 10:46:00,
2013-11-21 05:51:00,16.1,14.0,30.17,NNW,337,0.0,2.0,92,0.00,,,0.00,Rainwise IP-100,2013-11-21 10:51:00,
2013-11-21 05:56:00,16.2,14.0,30.17,NNW,337,0.0,0.0,92,0.00,,,0.00,Rainwise IP-100,2013-11-21 10:56:00,
2013-11-21 06:01:00,16.0,14.0,30.17,NNW,337,0.0,0.0,92,0.00,,,0.00,Rainwise IP-100,2013-11-21 11:01:00,
2013-11-21 06:06:00,16.0,14.0,30.17,NNW,337,1.6,3.0,92,0.00,,,0.00,Rainwise IP-100,2013-11-21 11:06:00,
2013-11-21 06:11:00,16.3,14.0,30.17,NNW,337,0.0,2.0,92,0.00,,,0.00,Rainwise IP-100,2013-11-21 11:11:00,
2013-11-21 06:16:00,16.5,16.0,30.16,NNW,337,0.0,0.0,91,0.00,,,0.00,Rainwise IP-100,2013-11-21 11:16:00,
2013-11-21 06:21:00,16.5,16.0,30.16,NNW,337,0.0,0.0,91,0.00,,,0.00,Rainwise IP-100,2013-11-21 11:21:00,
2013-11-21 06:26:00,16.6,16.0,30.16,NNW,337,0.0,0.0,91,0.00,,,0.00,Rainwise IP-100,2013-11-21 11:26:00,
2013-11-21 06:31:00,16.7,16.0,30.16,NNW,337,0.0,0.0,91,0.00,,,0.00,Rainwise IP-100,2013-11-21 11:31:00,
2013-11-21 06:36:00,16.5,16.0,30.16,NNW,337,0.0,0.0,91,0.00,,,0.00,Rainwise IP-100,2013-11-21 11:36:00,
2013-11-21 06:41:00,16.2,14.0,30.16,NNW,337,0.0,0.0,91,0.00,,,0.00,Rainwise IP-100,2013-11-21 11:41:00,
2013-11-21 06:47:00,16.3,14.0,30.16,NNW,337,1.4,0.0,91,0.00,,,0.00,Rainwise IP-100,2013-11-21 11:47:00,
2013-11-21 06:52:00,16.5,16.0,30.16,NNW,337,0.0,1.0,91,0.00,,,0.00,Rainwise IP-100,2013-11-21 11:52:00,
2013-11-21 06:57:00,16.2,14.0,30.16,NNW,337,0.0,2.0,90,0.00,,,0.00,Rainwise IP-100,2013-11-21 11:57:00,
2013-11-21 07:02:00,16.2,14.0,30.16,NNW,337,0.0,0.0,90,0.00,,,0.00,Rainwise IP-100,2013-11-21 12:02:00,
2013-11-21 07:07:00,16.2,14.0,30.16,NNW,337,0.0,0.0,90,0.00,,,0.00,Rainwise IP-100,2013-11-21 12:07:00,
2013-11-21 07:12:00,16.0,14.0,30.16,NNW,337,0.0,0.0,90,0.00,,,0.00,Rainwise IP-100,2013-11-21 12:12:00,
2013-11-21 07:17:00,15.6,14.0,30.16,NNW,337,0.0,1.0,90,0.00,,,0.00,Rainwise IP-100,2013-11-21 12:17:00,
2013-11-21 07:22:00,15.5,14.0,30.16,North,360,3.3,4.0,91,0.00,,,0.00,Rainwise IP-100,2013-11-21 12:22:00,
2013-11-21 07:27:00,15.7,14.0,30.16,North,360,3.0,4.0,91,0.00,,,0.00,Rainwise IP-100,2013-11-21 12:27:00,
2013-11-21 07:32:00,15.9,14.0,30.15,North,360,2.8,4.0,91,0.00,,,0.00,Rainwise IP-100,2013-11-21 12:32:00,
2013-11-21 07:37:00,16.2,14.0,30.16,North,360,1.4,3.0,91,0.00,,,0.00,Rainwise IP-100,2013-11-21 12:37:00,
2013-11-21 07:42:00,16.6,16.0,30.16,North,360,1.2,2.0,91,0.00,,,0.00,Rainwise IP-100,2013-11-21 12:42:00,
2013-11-21 07:47:00,17.0,16.0,30.15,North,360,1.4,2.0,91,0.00,,,0.00,Rainwise IP-100,2013-11-21 12:47:00,
2013-11-21 07:52:00,17.3,16.0,30.15,North,360,1.4,2.0,90,0.00,,,0.00,Rainwise IP-100,2013-11-21 12:52:00,
2013-11-21 07:57:00,17.5,16.0,30.15,North,360,0.0,1.0,90,0.00,,,0.00,Rainwise IP-100,2013-11-21 12:57:00,
2013-11-21 08:03:00,17.7,16.0,30.16,North,360,0.0,1.0,90,0.00,,,0.00,Rainwise IP-100,2013-11-21 13:03:00,
2013-11-21 08:08:00,18.1,16.0,30.15,North,360,0.0,1.0,90,0.00,,,0.00,Rainwise IP-100,2013-11-21 13:08:00,
2013-11-21 08:13:00,18.6,18.0,30.15,North,360,0.0,0.0,90,0.00,,,0.00,Rainwise IP-100,2013-11-21 13:13:00,
2013-11-21 08:18:00,19.1,18.0,30.15,North,360,0.0,0.0,89,0.00,,,0.00,Rainwise IP-100,2013-11-21 13:18:00,
2013-11-21 08:23:00,19.6,18.0,30.15,North,360,0.0,0.0,89,0.00,,,0.00,Rainwise IP-100,2013-11-21 13:23:00,
2013-11-21 08:28:00,20.1,18.0,30.15,ENE,67,0.0,3.0,89,0.00,,,0.00,Rainwise IP-100,2013-11-21 13:28:00,
2013-11-21 08:33:00,20.8,18.0,30.15,ENE,67,0.0,0.0,90,0.00,,,0.00,Rainwise IP-100,2013-11-21 13:33:00,
2013-11-21 08:38:00,21.7,21.0,30.15,SSW,202,1.4,2.0,92,0.00,,,0.00,Rainwise IP-100,2013-11-21 13:38:00,
2013-11-21 08:43:00,22.4,21.0,30.15,SSW,202,0.0,4.0,91,0.00,,,0.00,Rainwise IP-100,2013-11-21 13:43:00,
2013-11-21 08:48:00,22.8,21.0,30.15,South,180,1.4,2.0,92,0.00,,,0.00,Rainwise IP-100,2013-11-21 13:48:00,
2013-11-21 08:53:00,23.4,21.0,30.15,ENE,67,1.4,3.0,93,0.00,,,0.00,Rainwise IP-100,2013-11-21 13:53:00,
2013-11-21 08:58:00,24.2,23.0,30.16,ENE,67,0.0,1.0,94,0.00,,,0.00,Rainwise IP-100,2013-11-21 13:58:00,
2013-11-21 09:03:00,24.3,23.0,30.16,ENE,67,0.0,2.0,95,0.00,,,0.00,Rainwise IP-100,2013-11-21 14:03:00,
2013-11-21 09:08:00,24.5,24.0,30.15,South,180,1.2,4.0,95,0.00,,,0.00,Rainwise IP-100,2013-11-21 14:08:00,
2013-11-21 09:13:00,25.2,24.0,30.15,SSE,157,0.0,4.0,94,0.00,,,0.00,Rainwise IP-100,2013-11-21 14:13:00,
2013-11-21 09:19:00,25.8,24.0,30.15,South,180,1.6,2.0,95,0.00,,,0.00,Rainwise IP-100,2013-11-21 14:19:00,
2013-11-21 09:24:00,26.5,26.0,30.15,SSW,202,0.0,3.0,94,0.00,,,0.00,Rainwise IP-100,2013-11-21 14:24:00,
2013-11-21 09:29:00,27.2,26.0,30.15,South,180,1.9,2.0,94,0.00,,,0.00,Rainwise IP-100,2013-11-21 14:29:00,
2013-11-21 09:34:00,27.5,26.0,30.14,SW,225,0.0,4.0,93,0.00,,,0.00,Rainwise IP-100,2013-11-21 14:34:00,
2013-11-21 09:39:00,27.6,26.0,30.15,SSW,202,2.6,4.0,91,0.00,,,0.00,Rainwise IP-100,2013-11-21 14:39:00,
2013-11-21 09:44:00,27.8,26.0,30.14,SSE,157,0.0,2.0,90,0.00,,,0.00,Rainwise IP-100,2013-11-21 14:44:00,
2013-11-21 09:49:00,28.3,24.0,30.15,East,90,0.0,2.0,89,0.00,,,0.00,Rainwise IP-100,2013-11-21 14:49:00,
2013-11-21 09:54:00,29.4,26.0,30.15,South,180,1.4,2.0,89,0.00,,,0.00,Rainwise IP-100,2013-11-21 14:54:00,
2013-11-21 09:59:00,30.4,28.0,30.14,SSW,202,2.1,4.0,87,0.00,,,0.00,Rainwise IP-100,2013-11-21 14:59:00,
2013-11-21 10:04:00,30.2,26.0,30.14,SW,225,4.4,4.4,83,0.00,,,0.00,Rainwise IP-100,2013-11-21 15:04:00,
2013-11-21 10:09:00,30.1,26.0,30.14,SSW,202,0.0,4.0,81,0.00,,,0.00,Rainwise IP-100,2013-11-21 15:09:00,
2013-11-21 10:14:00,30.8,26.0,30.14,NE,45,1.9,3.0,81,0.00,,,0.01,Rainwise IP-100,2013-11-21 15:14:00,
2013-11-21 10:19:00,31.4,24.0,30.14,East,90,2.1,2.1,79,0.06,,,0.01,Rainwise IP-100,2013-11-21 15:19:00,
2013-11-21 10:24:00,31.3,24.0,30.13,East,90,0.0,2.0,77,0.06,,,0.01,Rainwise IP-100,2013-11-21 15:24:00,
2013-11-21 10:29:00,31.7,24.0,30.13,South,180,0.0,2.0,74,0.00,,,0.01,Rainwise IP-100,2013-11-21 15:29:00,
2013-11-21 10:35:00,32.5,24.0,30.13,SSW,202,1.6,3.0,71,0.00,,,0.01,Rainwise IP-100,2013-11-21 15:35:00,
2013-11-21 10:40:00,32.3,23.0,30.13,East,90,1.2,3.0,67,0.00,,,0.01,Rainwise IP-100,2013-11-21 15:40:00,
2013-11-21 10:45:00,32.4,23.0,30.12,East,90,0.0,2.0,66,0.00,,,0.01,Rainwise IP-100,2013-11-21 15:45:00,
2013-11-21 10:50:00,33.4,23.0,30.11,NNE,22,0.0,0.0,65,0.00,,,0.01,Rainwise IP-100,2013-11-21 15:50:00,
2013-11-21 10:55:00,33.7,24.0,30.11,ENE,67,3.3,3.3,65,0.00,,,0.01,Rainwise IP-100,2013-11-21 15:55:00,
2013-11-21 11:00:00,32.6,23.0,30.11,ENE,67,1.9,4.0,64,0.00,,,0.01,Rainwise IP-100,2013-11-21 16:00:00,
2013-11-21 11:05:00,32.3,21.0,30.11,NNE,22,0.0,2.0,61,0.00,,,0.01,Rainwise IP-100,2013-11-21 16:05:00,
2013-11-21 11:10:00,32.6,21.0,30.11,ENE,67,0.0,4.0,59,0.00,,,0.01,Rainwise IP-100,2013-11-21 16:10:00,
2013-11-21 11:15:00,32.4,18.0,30.11,East,90,2.1,2.1,58,0.00,,,0.01,Rainwise IP-100,2013-11-21 16:15:00,
2013-11-21 11:20:00,32.9,21.0,30.10,ENE,67,1.6,2.0,58,0.00,,,0.01,Rainwise IP-100,2013-11-21 16:20:00,
2013-11-21 11:25:00,33.2,21.0,30.10,ENE,67,0.0,3.0,59,0.00,,,0.01,Rainwise IP-100,2013-11-21 16:25:00,
2013-11-21 11:30:00,34.4,23.0,30.10,ESE,112,1.4,1.4,60,0.00,,,0.01,Rainwise IP-100,2013-11-21 16:30:00,
2013-11-21 11:35:00,35.5,24.0,30.09,ESE,112,0.0,2.0,60,0.00,,,0.01,Rainwise IP-100,2013-11-21 16:35:00,
2013-11-21 11:40:00,36.0,23.0,30.09,SW,225,1.6,4.0,57,0.00,,,0.01,Rainwise IP-100,2013-11-21 16:40:00,
2013-11-21 11:45:00,36.6,23.0,30.09,WSW,247,2.8,3.0,55,0.00,,,0.01,Rainwise IP-100,2013-11-21 16:45:00,
2013-11-21 11:51:00,36.9,23.0,30.08,SW,225,2.8,4.0,53,0.00,,,0.01,Rainwise IP-100,2013-11-21 16:51:00,
2013-11-21 11:56:00,37.0,21.0,30.08,South,180,0.0,4.0,50,0.00,,,0.01,Rainwise IP-100,2013-11-21 16:56:00,
2013-11-21 12:01:00,37.4,21.0,30.08,SSE,157,0.0,2.0,49,0.00,,,0.01,Rainwise IP-100,2013-11-21 17:01:00,
2013-11-21 12:06:00,37.7,21.0,30.07,SSE,157,0.0,2.0,48,0.00,,,0.01,Rainwise IP-100,2013-11-21 17:06:00,
2013-11-21 12:11:00,38.3,21.0,30.07,South,180,2.8,4.0,48,0.00,,,0.01,Rainwise IP-100,2013-11-21 17:11:00,
2013-11-21 12:16:00,38.9,23.0,30.07,SSW,202,3.3,5.0,48,0.00,,,0.01,Rainwise IP-100,2013-11-21 17:16:00,
2013-11-21 12:21:00,39.3,21.0,30.07,SW,225,3.7,3.7,47,0.00,,,0.01,Rainwise IP-100,2013-11-21 17:21:00,
2013-11-21 12:26:00,39.9,23.0,30.07,SSW,202,3.5,7.0,46,0.00,,,0.01,Rainwise IP-100,2013-11-21 17:26:00,
2013-11-21 12:31:00,39.8,21.0,30.06,SE,135,0.0,7.0,43,0.00,,,0.01,Rainwise IP-100,2013-11-21 17:31:00,
2013-11-21 12:36:00,39.9,18.0,30.06,SSW,202,4.2,6.0,41,0.00,,,0.01,Rainwise IP-100,2013-11-21 17:36:00,
2013-11-21 12:41:00,40.1,18.0,30.06,SSW,202,5.4,8.0,40,0.00,,,0.01,Rainwise IP-100,2013-11-21 17:41:00,
2013-11-21 12:46:00,40.2,18.0,30.05,SW,225,3.0,7.0,39,0.00,,,0.01,Rainwise IP-100,2013-11-21 17:46:00,
2013-11-21 12:51:00,40.7,18.0,30.05,SW,225,4.0,7.0,39,0.00,,,0.01,Rainwise IP-100,2013-11-21 17:51:00,
2013-11-21 12:56:00,41.1,18.0,30.05,WSW,247,1.9,6.0,38,0.00,,,0.01,Rainwise IP-100,2013-11-21 17:56:00,
2013-11-21 13:01:00,41.3,18.0,30.04,SSW,202,1.4,4.0,38,0.00,,,0.01,Rainwise IP-100,2013-11-21 18:01:00,
2013-11-21 13:07:00,41.4,18.0,30.04,SW,225,4.7,6.0,38,0.00,,,0.01,Rainwise IP-100,2013-11-21 18:07:00,
2013-11-21 13:12:00,41.5,18.0,30.03,SSE,157,3.7,6.0,37,0.00,,,0.01,Rainwise IP-100,2013-11-21 18:12:00,
2013-11-21 13:17:00,41.6,18.0,30.02,SSW,202,1.4,5.0,37,0.00,,,0.01,Rainwise IP-100,2013-11-21 18:17:00,
2013-11-21 13:22:00,41.7,18.0,30.02,SW,225,4.2,5.0,36,0.00,,,0.01,Rainwise IP-100,2013-11-21 18:22:00,
2013-11-21 13:27:00,41.2,16.0,30.01,SW,225,2.3,5.0,36,0.00,,,0.01,Rainwise IP-100,2013-11-21 18:27:00,
2013-11-21 13:32:00,41.4,16.0,30.01,SSW,202,2.6,4.0,36,0.00,,,0.01,Rainwise IP-100,2013-11-21 18:32:00,
2013-11-21 13:37:00,41.5,16.0,30.02,WSW,247,0.0,4.0,35,0.00,,,0.01,Rainwise IP-100,2013-11-21 18:37:00,
2013-11-21 13:42:00,41.2,16.0,30.01,SW,225,2.8,5.0,35,0.00,,,0.01,Rainwise IP-100,2013-11-21 18:42:00,
2013-11-21 13:47:00,41.3,16.0,30.01,SW,225,2.6,4.0,34,0.00,,,0.01,Rainwise IP-100,2013-11-21 18:47:00,
2013-11-21 13:52:00,41.3,16.0,30.00,SW,225,4.9,6.0,34,0.00,,,0.01,Rainwise IP-100,2013-11-21 18:52:00,
2013-11-21 13:57:00,41.0,16.0,30.01,SW,225,4.4,5.0,34,0.00,,,0.01,Rainwise IP-100,2013-11-21 18:57:00,
2013-11-21 14:02:00,41.0,16.0,30.00,SW,225,1.6,5.0,34,0.00,,,0.01,Rainwise IP-100,2013-11-21 19:02:00,
2013-11-21 14:07:00,41.3,16.0,30.00,SSW,202,3.7,4.0,34,0.00,,,0.01,Rainwise IP-100,2013-11-21 19:07:00,
2013-11-21 14:12:00,41.6,16.0,30.00,SSW,202,2.8,4.0,33,0.00,,,0.01,Rainwise IP-100,2013-11-21 19:12:00,
2013-11-21 14:17:00,41.8,16.0,29.99,SSW,202,1.2,2.0,33,0.00,,,0.01,Rainwise IP-100,2013-11-21 19:17:00,
2013-11-21 14:23:00,41.9,16.0,29.99,SSW,202,1.6,2.0,33,0.00,,,0.01,Rainwise IP-100,2013-11-21 19:23:00,
2013-11-21 14:28:00,42.0,16.0,29.99,SSW,202,3.5,4.0,33,0.00,,,0.01,Rainwise IP-100,2013-11-21 19:28:00,
2013-11-21 14:33:00,42.1,16.0,29.99,SW,225,4.9,5.0,33,0.00,,,0.01,Rainwise IP-100,2013-11-21 19:33:00,
2013-11-21 14:38:00,41.9,16.0,30.00,SSW,202,5.1,7.0,32,0.00,,,0.01,Rainwise IP-100,2013-11-21 19:38:00,
2013-11-21 14:43:00,41.7,16.0,30.00,South,180,1.9,7.0,32,0.00,,,0.01,Rainwise IP-100,2013-11-21 19:43:00,
2013-11-21 14:48:00,41.5,16.0,29.99,SSW,202,3.7,5.0,32,0.00,,,0.01,Rainwise IP-100,2013-11-21 19:48:00,
2013-11-21 14:53:00,41.3,16.0,29.99,SSW,202,3.3,5.0,33,0.00,,,0.01,Rainwise IP-100,2013-11-21 19:53:00,
2013-11-21 14:58:00,41.1,14.0,30.00,SSW,202,1.6,4.0,32,0.00,,,0.01,Rainwise IP-100,2013-11-21 19:58:00,
2013-11-21 15:03:00,41.1,16.0,29.99,SSW,202,1.9,3.0,33,0.00,,,0.01,Rainwise IP-100,2013-11-21 20:03:00,
2013-11-21 15:08:00,41.1,16.0,29.99,South,180,3.5,4.0,33,0.00,,,0.01,Rainwise IP-100,2013-11-21 20:08:00,
2013-11-21 15:13:00,41.0,16.0,29.99,SW,225,2.6,3.0,33,0.00,,,0.01,Rainwise IP-100,2013-11-21 20:13:00,
2013-11-21 15:18:00,40.9,16.0,30.00,SSW,202,2.8,5.0,33,0.00,,,0.01,Rainwise IP-100,2013-11-21 20:18:00,
2013-11-21 15:23:00,40.9,16.0,30.00,SSW,202,3.7,5.0,33,0.00,,,0.01,Rainwise IP-100,2013-11-21 20:23:00,
2013-11-21 15:28:00,41.0,16.0,29.99,SW,225,5.1,5.1,33,0.00,,,0.01,Rainwise IP-100,2013-11-21 20:28:00,
2013-11-21 15:33:00,41.0,16.0,29.99,SSW,202,3.5,6.0,33,0.00,,,0.01,Rainwise IP-100,2013-11-21 20:33:00,
2013-11-21 15:39:00,40.9,16.0,29.99,SSW,202,3.7,5.0,33,0.00,,,0.01,Rainwise IP-100,2013-11-21 20:39:00,
2013-11-21 15:44:00,40.7,16.0,29.99,SW,225,3.3,4.0,33,0.00,,,0.01,Rainwise IP-100,2013-11-21 20:44:00,
2013-11-21 15:49:00,40.4,14.0,29.99,WSW,247,0.0,4.0,33,0.00,,,0.01,Rainwise IP-100,2013-11-21 20:49:00,
2013-11-21 15:54:00,40.4,14.0,29.99,WSW,247,1.4,3.0,33,0.00,,,0.01,Rainwise IP-100,2013-11-21 20:54:00,
2013-11-21 15:59:00,40.3,14.0,29.99,WSW,247,0.0,3.0,33,0.00,,,0.01,Rainwise IP-100,2013-11-21 20:59:00,
2013-11-21 16:04:00,39.9,16.0,29.99,WSW,247,1.4,1.4,34,0.00,,,0.01,Rainwise IP-100,2013-11-21 21:04:00,
2013-11-21 16:09:00,39.1,14.0,29.99,WSW,247,0.0,2.0,35,0.00,,,0.01,Rainwise IP-100,2013-11-21 21:09:00,
2013-11-21 16:14:00,38.5,16.0,29.98,WSW,247,0.0,0.0,36,0.00,,,0.01,Rainwise IP-100,2013-11-21 21:14:00,
2013-11-21 16:19:00,38.2,14.0,29.98,WSW,247,0.0,0.0,36,0.00,,,0.01,Rainwise IP-100,2013-11-21 21:19:00,
2013-11-21 16:24:00,37.7,16.0,29.98,WSW,247,1.2,1.2,37,0.00,,,0.01,Rainwise IP-100,2013-11-21 21:24:00,
2013-11-21 16:29:00,37.4,14.0,29.99,WSW,247,0.0,1.0,37,0.00,,,0.01,Rainwise IP-100,2013-11-21 21:29:00,
2013-11-21 16:34:00,37.1,16.0,29.99,WSW,247,1.4,2.0,39,0.00,,,0.01,Rainwise IP-100,2013-11-21 21:34:00,
2013-11-21 16:39:00,36.7,16.0,29.99,WSW,247,0.0,1.0,39,0.00,,,0.01,Rainwise IP-100,2013-11-21 21:39:00,
2013-11-21 16:44:00,36.6,16.0,29.98,WSW,247,0.0,0.0,40,0.00,,,0.01,Rainwise IP-100,2013-11-21 21:44:00,
2013-11-21 16:49:00,36.4,14.0,29.99,WSW,247,0.0,0.0,40,0.00,,,0.01,Rainwise IP-100,2013-11-21 21:49:00,
2013-11-21 16:55:00,36.0,16.0,29.98,WSW,247,1.6,1.6,41,0.00,,,0.01,Rainwise IP-100,2013-11-21 21:55:00,
2013-11-21 17:00:00,35.6,16.0,29.98,WSW,247,0.0,1.0,43,0.00,,,0.01,Rainwise IP-100,2013-11-21 22:00:00,
2013-11-21 17:05:00,35.3,16.0,29.98,WSW,247,0.0,1.0,43,0.00,,,0.01,Rainwise IP-100,2013-11-21 22:05:00,
2013-11-21 17:10:00,35.0,16.0,29.98,WSW,247,0.0,0.0,45,0.00,,,0.01,Rainwise IP-100,2013-11-21 22:10:00,
2013-11-21 17:15:00,34.8,16.0,29.98,WSW,247,0.0,0.0,47,0.00,,,0.01,Rainwise IP-100,2013-11-21 22:15:00,
2013-11-21 17:20:00,34.7,16.0,29.98,WSW,247,0.0,0.0,47,0.00,,,0.01,Rainwise IP-100,2013-11-21 22:20:00,
2013-11-21 17:25:00,34.6,16.0,29.99,WSW,247,1.9,1.9,47,0.00,,,0.01,Rainwise IP-100,2013-11-21 22:25:00,
2013-11-21 17:30:00,34.4,16.0,29.99,WSW,247,0.0,1.0,47,0.00,,,0.01,Rainwise IP-100,2013-11-21 22:30:00,
2013-11-21 17:35:00,34.2,16.0,29.99,WSW,247,1.2,0.0,47,0.00,,,0.01,Rainwise IP-100,2013-11-21 22:35:00,
2013-11-21 17:40:00,34.2,18.0,29.99,WSW,247,1.6,1.6,48,0.00,,,0.01,Rainwise IP-100,2013-11-21 22:40:00,
2013-11-21 17:45:00,34.0,18.0,29.98,WSW,247,1.2,1.2,48,0.00,,,0.01,Rainwise IP-100,2013-11-21 22:45:00,
2013-11-21 17:50:00,33.9,16.0,29.98,WSW,247,0.0,1.0,47,0.00,,,0.01,Rainwise IP-100,2013-11-21 22:50:00,
2013-11-21 17:55:00,33.9,16.0,29.98,WSW,247,0.0,0.0,47,0.00,,,0.01,Rainwise IP-100,2013-11-21 22:55:00,
2013-11-21 18:00:00,33.9,16.0,29.98,WSW,247,0.0,1.0,47,0.00,,,0.01,Rainwise IP-100,2013-11-21 23:00:00,
2013-11-21 18:05:00,33.6,18.0,29.98,WSW,247,1.2,1.2,49,0.00,,,0.01,Rainwise IP-100,2013-11-21 23:05:00,
2013-11-21 18:11:00,33.3,16.0,29.98,WSW,247,1.2,1.2,49,0.00,,,0.01,Rainwise IP-100,2013-11-21 23:11:00,
2013-11-21 18:16:00,32.9,18.0,29.98,WSW,247,1.9,2.0,50,0.00,,,0.01,Rainwise IP-100,2013-11-21 23:16:00,
2013-11-21 18:21:00,32.4,16.0,29.98,WSW,247,0.0,2.0,50,0.00,,,0.01,Rainwise IP-100,2013-11-21 23:21:00,
2013-11-21 18:26:00,32.1,16.0,29.98,WSW,247,0.0,0.0,51,0.00,,,0.01,Rainwise IP-100,2013-11-21 23:26:00,
2013-11-21 18:31:00,31.9,16.0,29.98,WSW,247,0.0,0.0,52,0.00,,,0.01,Rainwise IP-100,2013-11-21 23:31:00,
2013-11-21 18:36:00,31.6,18.0,29.98,WSW,247,0.0,1.0,53,0.00,,,0.01,Rainwise IP-100,2013-11-21 23:36:00,
2013-11-21 18:41:00,31.3,16.0,29.98,WSW,247,1.9,2.0,54,0.00,,,0.01,Rainwise IP-100,2013-11-21 23:41:00,
2013-11-21 18:46:00,31.0,16.0,29.98,WSW,247,1.4,2.0,55,0.00,,,0.01,Rainwise IP-100,2013-11-21 23:46:00,
2013-11-21 18:51:00,30.6,16.0,29.98,WSW,247,1.2,2.0,55,0.00,,,0.01,Rainwise IP-100,2013-11-21 23:51:00,
2013-11-21 18:56:00,30.5,16.0,29.97,WSW,247,0.0,1.0,55,0.00,,,0.01,Rainwise IP-100,2013-11-21 23:56:00,
2013-11-21 19:01:00,30.5,16.0,29.98,WSW,247,0.0,1.0,55,0.00,,,0.01,Rainwise IP-100,2013-11-22 00:01:00,
2013-11-21 19:06:00,30.3,18.0,29.97,WSW,247,0.0,1.0,56,0.00,,,0.01,Rainwise IP-100,2013-11-22 00:06:00,
2013-11-21 19:11:00,29.9,18.0,29.97,WSW,247,0.0,1.0,58,0.00,,,0.01,Rainwise IP-100,2013-11-22 00:11:00,
2013-11-21 19:16:00,29.7,18.0,29.97,WSW,247,1.6,1.6,59,0.00,,,0.01,Rainwise IP-100,2013-11-22 00:16:00,
2013-11-21 19:21:00,29.8,18.0,29.97,WSW,247,0.0,1.0,60,0.00,,,0.01,Rainwise IP-100,2013-11-22 00:21:00,
2013-11-21 19:27:00,29.8,18.0,29.97,WSW,247,0.0,0.0,60,0.00,,,0.01,Rainwise IP-100,2013-11-22 00:27:00,
2013-11-21 19:32:00,29.6,18.0,29.97,WSW,247,0.0,0.0,60,0.00,,,0.01,Rainwise IP-100,2013-11-22 00:32:00,
2013-11-21 19:37:00,29.4,18.0,29.96,WSW,247,0.0,0.0,61,0.00,,,0.01,Rainwise IP-100,2013-11-22 00:37:00,
2013-11-21 19:42:00,29.2,18.0,29.96,WSW,247,1.4,1.4,62,0.00,,,0.01,Rainwise IP-100,2013-11-22 00:42:00,
2013-11-21 19:47:00,29.2,18.0,29.95,WSW,247,2.3,2.3,62,0.00,,,0.01,Rainwise IP-100,2013-11-22 00:47:00,
2013-11-21 19:52:00,29.0,18.0,29.95,WSW,247,1.9,2.0,62,0.00,,,0.01,Rainwise IP-100,2013-11-22 00:52:00,
2013-11-21 19:57:00,28.9,18.0,29.95,WSW,247,1.9,2.0,62,0.00,,,0.01,Rainwise IP-100,2013-11-22 00:57:00,
2013-11-21 20:02:00,28.9,18.0,29.95,WSW,247,0.0,2.0,62,0.00,,,0.01,Rainwise IP-100,2013-11-22 01:02:00,
2013-11-21 20:07:00,29.0,18.0,29.95,North,360,3.3,3.3,62,0.00,,,0.01,Rainwise IP-100,2013-11-22 01:07:00,
2013-11-21 20:12:00,29.0,18.0,29.95,North,360,0.0,3.0,63,0.00,,,0.01,Rainwise IP-100,2013-11-22 01:12:00,
2013-11-21 20:17:00,29.0,18.0,29.95,North,360,1.4,1.4,64,0.00,,,0.01,Rainwise IP-100,2013-11-22 01:17:00,
2013-11-21 20:22:00,29.1,18.0,29.95,North,360,2.6,3.0,65,0.00,,,0.01,Rainwise IP-100,2013-11-22 01:22:00,
2013-11-21 20:27:00,29.2,18.0,29.95,NW,315,0.0,3.0,64,0.00,,,0.01,Rainwise IP-100,2013-11-22 01:27:00,
2013-11-21 20:32:00,29.3,18.0,29.95,NW,315,0.0,0.0,64,0.00,,,0.01,Rainwise IP-100,2013-11-22 01:32:00,
2013-11-21 20:37:00,29.4,18.0,29.95,NW,315,0.0,1.0,64,0.00,,,0.01,Rainwise IP-100,2013-11-22 01:37:00,
2013-11-21 20:43:00,29.4,18.0,29.95,WSW,247,0.0,2.0,64,0.00,,,0.01,Rainwise IP-100,2013-11-22 01:43:00,
2013-11-21 20:48:00,29.5,21.0,29.95,WSW,247,0.0,1.0,64,0.00,,,0.01,Rainwise IP-100,2013-11-22 01:48:00,
2013-11-21 20:53:00,29.5,21.0,29.95,WSW,247,0.0,0.0,64,0.00,,,0.01,Rainwise IP-100,2013-11-22 01:53:00,
2013-11-21 20:58:00,29.7,21.0,29.95,WSW,247,0.0,1.0,64,0.00,,,0.01,Rainwise IP-100,2013-11-22 01:58:00,
2013-11-21 21:03:00,29.8,21.0,29.95,WSW,247,0.0,0.0,64,0.00,,,0.01,Rainwise IP-100,2013-11-22 02:03:00,
2013-11-21 21:08:00,29.9,21.0,29.94,WSW,247,0.0,0.0,64,0.00,,,0.01,Rainwise IP-100,2013-11-22 02:08:00,
2013-11-21 21:09:00,29.9,21.0,29.94,WSW,247,0.0,0.0,64,0.00,,,0.01,Rainwise IP-100,2013-11-22 02:09:00,
2013-11-21 21:12:00,30.0,21.0,29.94,WSW,247,1.6,1.6,64,0.00,,,0.01,Rainwise IP-100,2013-11-22 02:12:00,
2013-11-21 21:17:00,30.0,21.0,29.94,WSW,247,0.0,2.0,64,0.00,,,0.01,Rainwise IP-100,2013-11-22 02:17:00,
2013-11-21 21:23:00,30.1,21.0,29.94,WSW,247,0.0,0.0,64,0.00,,,0.01,Rainwise IP-100,2013-11-22 02:23:00,
2013-11-21 21:28:00,30.2,21.0,29.94,WSW,247,1.2,0.0,64,0.00,,,0.01,Rainwise IP-100,2013-11-22 02:28:00,
2013-11-21 21:33:00,30.5,21.0,29.94,WSW,247,0.0,2.0,64,0.00,,,0.01,Rainwise IP-100,2013-11-22 02:33:00,
2013-11-21 21:38:00,30.6,21.0,29.94,NE,45,2.1,3.0,63,0.00,,,0.01,Rainwise IP-100,2013-11-22 02:38:00,
2013-11-21 21:43:00,30.6,21.0,29.94,NE,45,2.1,2.1,62,0.00,,,0.01,Rainwise IP-100,2013-11-22 02:43:00,
2013-11-21 21:48:00,30.6,21.0,29.94,NE,45,1.2,2.0,63,0.00,,,0.01,Rainwise IP-100,2013-11-22 02:48:00,
2013-11-21 21:53:00,30.6,21.0,29.93,North,360,3.0,3.0,65,0.00,,,0.01,Rainwise IP-100,2013-11-22 02:53:00,
2013-11-21 21:58:00,30.5,21.0,29.93,North,360,1.9,3.0,65,0.00,,,0.01,Rainwise IP-100,2013-11-22 02:58:00,
2013-11-21 22:03:00,30.6,21.0,29.93,North,360,0.0,1.0,66,0.00,,,0.01,Rainwise IP-100,2013-11-22 03:03:00,
2013-11-21 22:08:00,30.7,21.0,29.93,North,360,2.6,2.6,65,0.00,,,0.01,Rainwise IP-100,2013-11-22 03:08:00,
2013-11-21 22:13:00,30.8,21.0,29.94,North,360,1.6,2.0,65,0.00,,,0.01,Rainwise IP-100,2013-11-22 03:13:00,
2013-11-21 22:18:00,30.9,21.0,29.93,North,360,0.0,1.0,64,0.00,,,0.01,Rainwise IP-100,2013-11-22 03:18:00,
2013-11-21 22:23:00,30.9,21.0,29.93,North,360,0.0,2.0,64,0.00,,,0.01,Rainwise IP-100,2013-11-22 03:23:00,
2013-11-21 22:28:00,30.9,21.0,29.93,North,360,0.0,1.0,64,0.00,,,0.01,Rainwise IP-100,2013-11-22 03:28:00,
2013-11-21 22:33:00,30.8,21.0,29.92,North,360,0.0,1.0,65,0.00,,,0.01,Rainwise IP-100,2013-11-22 03:33:00,
2013-11-21 22:39:00,30.8,21.0,29.92,North,360,2.3,2.3,66,0.00,,,0.01,Rainwise IP-100,2013-11-22 03:39:00,
2013-11-21 22:44:00,30.8,21.0,29.92,North,360,2.8,3.0,66,0.00,,,0.01,Rainwise IP-100,2013-11-22 03:44:00,
2013-11-21 22:49:00,30.8,21.0,29.92,NNW,337,2.3,3.0,65,0.00,,,0.01,Rainwise IP-100,2013-11-22 03:49:00,
2013-11-21 22:54:00,30.8,21.0,29.91,NNW,337,0.0,3.0,65,0.00,,,0.01,Rainwise IP-100,2013-11-22 03:54:00,
2013-11-21 22:59:00,30.8,21.0,29.91,NNW,337,2.3,2.3,65,0.00,,,0.01,Rainwise IP-100,2013-11-22 03:59:00,
2013-11-21 23:04:00,30.7,21.0,29.91,NNE,22,4.9,4.9,65,0.00,,,0.01,Rainwise IP-100,2013-11-22 04:04:00,
2013-11-21 23:09:00,30.7,21.0,29.91,NNE,22,0.0,4.0,66,0.00,,,0.01,Rainwise IP-100,2013-11-22 04:09:00,
2013-11-21 23:14:00,30.6,21.0,29.91,NNE,22,2.6,2.6,65,0.00,,,0.01,Rainwise IP-100,2013-11-22 04:14:00,
2013-11-21 23:19:00,30.7,21.0,29.91,NNE,22,1.2,3.0,65,0.00,,,0.01,Rainwise IP-100,2013-11-22 04:19:00,
2013-11-21 23:24:00,30.7,21.0,29.90,North,360,0.0,3.0,65,0.00,,,0.01,Rainwise IP-100,2013-11-22 04:24:00,
2013-11-21 23:29:00,30.7,21.0,29.90,North,360,1.6,1.6,65,0.00,,,0.01,Rainwise IP-100,2013-11-22 04:29:00,
2013-11-21 23:34:00,30.7,21.0,29.90,WNW,292,2.3,3.0,65,0.00,,,0.01,Rainwise IP-100,2013-11-22 04:34:00,
2013-11-21 23:39:00,30.7,21.0,29.90,WNW,292,0.0,2.0,65,0.00,,,0.01,Rainwise IP-100,2013-11-22 04:39:00,
2013-11-21 23:44:00,30.8,21.0,29.90,WNW,292,0.0,0.0,65,0.00,,,0.01,Rainwise IP-100,2013-11-22 04:44:00,
2013-11-21 23:49:00,30.8,21.0,29.89,WNW,292,2.6,2.6,65,0.00,,,0.01,Rainwise IP-100,2013-11-22 04:49:00,
2013-11-21 23:55:00,30.9,21.0,29.89,WNW,292,0.0,2.0,66,0.00,,,0.01,Rainwise IP-100,2013-11-22 04:55:00,